This is the latest recevied weather packets stored in our database for station/object N5CSU. If no packets are shown the sender has not sent any weather packets the latest 10 day(s).
| Time | Temp. | Humidity | Pressure | Rain* | Wind** | Luminosity | Snow |
|---|---|---|---|---|---|---|---|
| 1777938899 | 25.56° C | 64% | 1006.9 hPa | 0 mm | - | 6 W/m² | - |
| 1777938596 | 25.56° C | 64% | 1007.1 hPa | 0 mm | - | 7 W/m² | - |
| 1777938293 | 25.56° C | 64% | 1007.2 hPa | 0 mm | - | 7 W/m² | - |
| 1777937990 | 25.56° C | 63% | 1007.2 hPa | 0 mm | - | 8 W/m² | - |
| 1777937685 | 25.56° C | 63% | 1007.1 hPa | 0 mm | - | 8 W/m² | - |
| 1777937383 | 25.56° C | 63% | 1007 hPa | 0 mm | - | 7 W/m² | - |
| 1777937080 | 25.56° C | 63% | 1007.1 hPa | 0 mm | - | 7 W/m² | - |
| 1777936777 | 26.11° C | 63% | 1007.1 hPa | 0 mm | - | 9 W/m² | - |
| 1777936473 | 26.11° C | 62% | 1007 hPa | 0 mm | - | 8 W/m² | - |
| 1777936169 | 26.11° C | 63% | 1007.2 hPa | 0 mm | - | 7 W/m² | - |
| 1777935866 | 26.11° C | 62% | 1007.3 hPa | 0 mm | - | 10 W/m² | - |
| 1777935566 | 26.11° C | 62% | 1007.4 hPa | 0 mm | - | 11 W/m² | - |
| 1777935262 | 26.11° C | 62% | 1007.1 hPa | 0 mm | - | 8 W/m² | - |
| 1777934959 | 26.67° C | 62% | 1007.4 hPa | 0 mm | - | 17 W/m² | - |
| 1777934655 | 26.67° C | 61% | 1007.3 hPa | 0 mm | - | 9 W/m² | - |
| 1777934353 | 26.67° C | 61% | 1007.3 hPa | 0 mm | - | 9 W/m² | - |
| 1777934048 | 26.67° C | 62% | 1007.4 hPa | 0 mm | - | 9 W/m² | - |
| 1777933744 | 26.67° C | 61% | 1007.3 hPa | 0 mm | - | 11 W/m² | - |
| 1777933441 | 26.11° C | 61% | 1007.4 hPa | 0 mm | - | 11 W/m² | - |
| 1777933140 | 26.11° C | 61% | 1007.4 hPa | 0 mm | - | 12 W/m² | - |
| 1777932836 | 26.67° C | 61% | 1007.7 hPa | 0 mm | - | 12 W/m² | - |
| 1777932534 | 26.67° C | 61% | 1007.6 hPa | 0 mm | - | 12 W/m² | - |
| 1777932230 | 26.67° C | 61% | 1007.8 hPa | 0 mm | - | 14 W/m² | - |
| 1777931927 | 26.67° C | 60% | 1007.7 hPa | 0 mm | - | 18 W/m² | - |
| 1777931623 | 26.11° C | 60% | 1007.9 hPa | 0 mm | - | 20 W/m² | - |
* Rain latest hour (hover to see other rain measurements)
** Current wind speed in m/s (hover to see current wind gust speed)